Location: Newark
(45.2705°N, 0.1715°E)
Time: 09:00:42
(UTC+00:00)

N. Korean satellite - Visible Passes

Search period start: 21 January 2020 00:00
Search period end: 31 January 2020 00:00
Orbit: 454 x 507 km, 97.2° (Epoch: 20 January)

Date Brightness Start Highest point End Pass type
(mag) Time Alt. Az. Time Alt. Az. Time Alt. Az.
21 Jan 6.5 05:53:22 10° NNE 05:56:55 87° ESE 06:00:29 10° SSW visible
21 Jan 9.9 18:06:08 10° WSW 18:07:42 13° W 18:09:14 10° WNW visible
22 Jan 7.9 05:28:01 10° NNE 05:31:23 40° E 05:34:46 10° S visible
22 Jan 9.1 17:39:09 10° SSW 17:42:00 25° W 17:44:53 10° NW visible
23 Jan 9.3 05:03:04 10° NE 05:05:46 20° E 05:08:29 10° SE visible
23 Jan 7.4 06:36:07 10° N 06:39:10 27° WNW 06:42:15 10° SW visible
24 Jan 10.2 04:39:33 10° E 04:40:04 10° E 04:40:34 10° E visible
24 Jan 6.6 06:10:17 10° N 06:13:46 56° WNW 06:17:18 10° SSW visible
25 Jan 6.9 05:44:44 10° NNE 05:48:18 67° E 05:51:53 10° S visible
25 Jan 9.7 17:56:50 10° SW 17:58:58 16° W 18:01:09 10° NW visible
26 Jan 8.5 05:19:29 10° NNE 05:22:44 32° E 05:26:00 10° SSE visible
26 Jan 8.7 17:30:14 10° SSW 17:33:19 31° W 17:36:26 10° NNW visible
27 Jan 9.6 04:54:44 10° NE 04:57:05 16° E 04:59:28 10° SE visible
27 Jan 7.2 06:27:17 10° N 06:30:35 34° WNW 06:33:54 10° SW visible
28 Jan 6.4 06:01:34 10° N 06:05:09 73° WNW 06:08:47 10° SSW visible
29 Jan 7.4 05:36:07 10° NNE 05:39:39 52° E 05:43:13 10° S visible
29 Jan 9.6 17:47:41 10° SW 17:50:15 20° W 17:52:51 10° NW visible
30 Jan 8.9 05:10:59 10° NE 05:14:04 26° E 05:17:09 10° SSE visible
30 Jan 7.8 06:44:27 10° NNW 06:47:20 23° WNW 06:50:14 10° WSW visible
